TimeMST,TemperatureF,Dew PointF,Humidity,Sea Level PressureIn,VisibilityMPH,Wind Direction,Wind SpeedMPH,Gust SpeedMPH,PrecipitationIn,Events,Conditions,WindDirDegrees,DateUTC
12:56 AM,14.0,10.9,88,30.30,-9999.0,Calm,Calm,-,N/A,,Unknown,0,2013-01-24 07:56:00
1:56 AM,16.0,12.0,84,30.28,-9999.0,Calm,Calm,-,N/A,,Unknown,0,2013-01-24 08:56:00
2:56 AM,16.0,12.9,88,30.26,-9999.0,Calm,Calm,-,N/A,,Unknown,0,2013-01-24 09:56:00
3:56 AM,16.0,12.9,88,30.23,-9999.0,Calm,Calm,-,N/A,,Unknown,0,2013-01-24 10:56:00
4:56 AM,17.1,14.0,88,30.26,-9999.0,Calm,Calm,-,N/A,,Unknown,0,2013-01-24 11:56:00
5:56 AM,19.0,14.0,81,30.26,-9999.0,Calm,Calm,-,N/A,,Unknown,0,2013-01-24 12:56:00
6:56 AM,23.0,16.0,74,30.26,-9999.0,Calm,Calm,-,N/A,,Unknown,0,2013-01-24 13:56:00
7:56 AM,27.0,21.0,78,30.22,-9999.0,Variable,3.5,-,N/A,,Unknown,0,2013-01-24 14:56:00
8:56 AM,26.1,23.0,88,30.24,-9999.0,Calm,Calm,-,0.01,,Unknown,0,2013-01-24 15:56:00
9:56 AM,27.0,23.0,85,30.26,-9999.0,Calm,Calm,-,0.01,,Unknown,0,2013-01-24 16:56:00
10:56 AM,27.0,24.1,89,30.26,-9999.0,Calm,Calm,-,0.02,,Unknown,0,2013-01-24 17:56:00
11:56 AM,30.0,24.1,79,30.24,-9999.0,Variable,5.8,-,0.01,,Unknown,0,2013-01-24 18:56:00
12:56 PM,30.0,23.0,75,30.23,-9999.0,WSW,8.1,-,N/A,,Unknown,240,2013-01-24 19:56:00
1:56 PM,28.9,23.0,78,30.24,-9999.0,WSW,8.1,-,N/A,,Unknown,250,2013-01-24 20:56:00
2:56 PM,28.9,23.0,78,30.25,-9999.0,Variable,5.8,-,N/A,,Unknown,0,2013-01-24 21:56:00
3:56 PM,28.0,23.0,81,30.28,-9999.0,Variable,5.8,-,N/A,,Unknown,0,2013-01-24 22:56:00
4:56 PM,28.0,21.9,78,30.29,-9999.0,Variable,6.9,-,N/A,,Unknown,0,2013-01-24 23:56:00
5:56 PM,27.0,21.9,81,30.30,-9999.0,Variable,5.8,-,N/A,,Unknown,0,2013-01-25 00:56:00
6:56 PM,27.0,21.0,78,30.28,-9999.0,West,5.8,-,N/A,,Unknown,260,2013-01-25 01:56:00
7:56 PM,27.0,21.0,78,30.27,-9999.0,Calm,Calm,-,N/A,,Unknown,0,2013-01-25 02:56:00
8:56 PM,27.0,21.0,78,30.27,-9999.0,West,5.8,-,N/A,,Unknown,280,2013-01-25 03:56:00
9:56 PM,26.1,21.0,81,30.27,-9999.0,Variable,4.6,-,N/A,,Unknown,0,2013-01-25 04:56:00
10:56 PM,26.1,19.9,78,30.29,-9999.0,Variable,6.9,-,N/A,,Unknown,0,2013-01-25 05:56:00
11:56 PM,26.1,19.9,78,30.28,-9999.0,Variable,5.8,-,N/A,,Unknown,0,2013-01-25 06:56:00